TimeMST,TemperatureF,Dew PointF,Humidity,Sea Level PressureIn,VisibilityMPH,Wind Direction,Wind SpeedMPH,Gust SpeedMPH,PrecipitationIn,Events,Conditions,WindDirDegrees,DateUTC
12:15 AM,-16.6,-22.0,76,30.29,10.0,NW,4.6,-,N/A,,Clear,310,2013-01-03 07:15:00
1:15 AM,-18.4,-23.8,76,30.30,10.0,West,4.6,-,N/A,,Clear,270,2013-01-03 08:15:00
1:35 AM,-16.6,-22.0,76,30.30,10.0,WNW,6.9,-,N/A,,Clear,300,2013-01-03 08:35:00
1:55 AM,-18.4,-23.8,76,30.31,10.0,WNW,4.6,-,N/A,,Clear,300,2013-01-03 08:55:00
2:15 AM,-18.4,-23.8,76,30.31,10.0,NW,4.6,-,N/A,,Clear,310,2013-01-03 09:15:00
2:35 AM,-18.4,-23.8,76,30.31,10.0,West,5.8,-,N/A,,Clear,280,2013-01-03 09:35:00
2:55 AM,-18.4,-23.8,76,30.31,10.0,WNW,6.9,-,N/A,,Clear,300,2013-01-03 09:55:00
3:15 AM,-18.4,-23.8,76,30.32,10.0,WNW,5.8,-,N/A,,Clear,300,2013-01-03 10:15:00
3:35 AM,-18.4,-23.8,76,30.32,10.0,West,5.8,-,N/A,,Clear,270,2013-01-03 10:35:00
3:55 AM,-18.4,-23.8,76,30.32,10.0,West,4.6,-,N/A,,Clear,280,2013-01-03 10:55:00
4:15 AM,-16.6,-20.2,84,30.31,10.0,West,5.8,-,N/A,,Clear,280,2013-01-03 11:15:00
4:35 AM,-16.6,-22.0,76,30.31,10.0,WNW,5.8,-,N/A,,Clear,290,2013-01-03 11:35:00
4:55 AM,-16.6,-22.0,76,30.30,10.0,WNW,6.9,-,N/A,,Clear,300,2013-01-03 11:55:00
5:15 AM,-16.6,-22.0,76,30.30,10.0,WNW,6.9,-,N/A,,Clear,300,2013-01-03 12:15:00
5:35 AM,-16.6,-22.0,76,30.29,10.0,NW,6.9,-,N/A,,Clear,310,2013-01-03 12:35:00
5:55 AM,-18.4,-23.8,76,30.29,10.0,WNW,4.6,-,N/A,,Clear,290,2013-01-03 12:55:00
6:35 AM,-16.6,-22.0,76,30.30,10.0,WNW,3.5,-,N/A,,Clear,300,2013-01-03 13:35:00
6:55 AM,-16.6,-20.2,84,30.30,10.0,WNW,3.5,-,N/A,,Clear,290,2013-01-03 13:55:00
7:15 AM,-16.6,-22.0,76,30.30,10.0,WNW,3.5,-,N/A,,Clear,290,2013-01-03 14:15:00
7:35 AM,-14.8,-18.4,84,30.30,10.0,NNW,3.5,-,N/A,,Clear,340,2013-01-03 14:35:00
7:55 AM,-16.6,-22.0,76,30.30,10.0,Calm,Calm,-,N/A,,Clear,0,2013-01-03 14:55:00
8:35 AM,-13.0,-18.4,77,30.30,10.0,NW,4.6,-,N/A,,Clear,310,2013-01-03 15:35:00
8:55 AM,-9.4,-14.8,77,30.30,10.0,West,5.8,-,N/A,,Clear,280,2013-01-03 15:55:00
9:15 AM,-9.4,-14.8,77,30.30,10.0,Calm,Calm,-,N/A,,Clear,0,2013-01-03 16:15:00
9:35 AM,-5.8,-11.2,77,30.31,10.0,Calm,Calm,-,N/A,,Clear,0,2013-01-03 16:35:00
9:55 AM,-4.0,-9.4,78,30.31,10.0,Calm,Calm,-,N/A,,Clear,0,2013-01-03 16:55:00
10:15 AM,-2.2,-5.8,85,30.31,10.0,Calm,Calm,-,N/A,,Clear,0,2013-01-03 17:15:00
10:35 AM,-0.4,-5.8,78,30.31,10.0,Calm,Calm,-,N/A,,Clear,0,2013-01-03 17:35:00
10:55 AM,-0.4,-5.8,78,30.31,10.0,East,4.6,-,N/A,,Clear,100,2013-01-03 17:55:00
11:15 AM,1.4,-4.0,78,30.31,10.0,Calm,Calm,-,N/A,,Scattered Clouds,0,2013-01-03 18:15:00
11:35 AM,3.2,-4.0,72,30.31,7.0,East,3.5,-,N/A,,Scattered Clouds,100,2013-01-03 18:35:00
11:55 AM,3.2,-4.0,72,30.30,10.0,East,3.5,-,N/A,,Clear,90,2013-01-03 18:55:00
12:15 PM,8.6,-4.0,57,30.29,10.0,Calm,Calm,-,N/A,,Clear,0,2013-01-03 19:15:00
12:35 PM,6.8,-4.0,61,30.29,10.0,Calm,Calm,-,N/A,,Clear,0,2013-01-03 19:35:00
12:55 PM,10.4,-0.4,62,30.27,10.0,Calm,Calm,-,N/A,,Clear,0,2013-01-03 19:55:00
1:15 PM,10.4,1.4,67,30.27,10.0,WNW,3.5,-,N/A,,Clear,300,2013-01-03 20:15:00
1:35 PM,12.2,-0.4,57,30.27,10.0,Calm,Calm,-,N/A,,Clear,0,2013-01-03 20:35:00
1:55 PM,14.0,1.4,57,30.27,10.0,Calm,Calm,-,N/A,,Clear,0,2013-01-03 20:55:00
2:15 PM,15.8,1.4,53,30.27,10.0,Calm,Calm,-,N/A,,Clear,0,2013-01-03 21:15:00
2:35 PM,15.8,1.4,53,30.27,10.0,Calm,Calm,-,N/A,,Clear,0,2013-01-03 21:35:00
2:55 PM,21.2,1.4,42,30.28,10.0,Calm,Calm,-,N/A,,Clear,0,2013-01-03 21:55:00
3:15 PM,19.4,-0.4,42,30.28,10.0,Calm,Calm,-,N/A,,Clear,0,2013-01-03 22:15:00
3:35 PM,15.8,1.4,53,30.29,10.0,East,3.5,-,N/A,,Clear,100,2013-01-03 22:35:00
3:55 PM,14.0,3.2,62,30.29,10.0,ESE,5.8,-,N/A,,Clear,110,2013-01-03 22:55:00
4:15 PM,12.2,1.4,62,30.29,10.0,ESE,4.6,-,N/A,,Clear,110,2013-01-03 23:15:00
4:35 PM,10.4,1.4,67,30.29,10.0,Calm,Calm,-,N/A,,Clear,0,2013-01-03 23:35:00
4:55 PM,10.4,1.4,67,30.29,10.0,East,3.5,-,N/A,,Clear,90,2013-01-03 23:55:00
5:15 PM,5.0,-4.0,66,30.29,10.0,Calm,Calm,-,N/A,,Clear,0,2013-01-04 00:15:00
5:35 PM,5.0,-0.4,78,30.29,10.0,Calm,Calm,-,N/A,,Clear,0,2013-01-04 00:35:00
5:55 PM,-0.4,-5.8,78,30.29,10.0,Calm,Calm,-,N/A,,Clear,0,2013-01-04 00:55:00
6:15 PM,-0.4,-5.8,78,30.30,10.0,Calm,Calm,-,N/A,,Scattered Clouds,0,2013-01-04 01:15:00
6:35 PM,-5.8,-9.4,84,30.30,10.0,Calm,Calm,-,N/A,,Scattered Clouds,0,2013-01-04 01:35:00
6:55 PM,-4.0,-7.6,85,30.30,10.0,Calm,Calm,-,N/A,,Clear,0,2013-01-04 01:55:00
7:15 PM,-9.4,-14.8,77,30.30,10.0,NW,3.5,-,N/A,,Clear,320,2013-01-04 02:15:00
7:35 PM,-5.8,-9.4,84,30.29,10.0,West,3.5,-,N/A,,Clear,270,2013-01-04 02:35:00
7:55 PM,-7.6,-11.2,84,30.29,10.0,West,4.6,-,N/A,,Clear,280,2013-01-04 02:55:00
8:15 PM,-9.4,-14.8,77,30.29,10.0,WNW,5.8,-,N/A,,Clear,290,2013-01-04 03:15:00
8:35 PM,-9.4,-13.0,84,30.29,10.0,NW,4.6,-,N/A,,Clear,310,2013-01-04 03:35:00
8:55 PM,-5.8,-9.4,84,30.29,10.0,WNW,3.5,-,N/A,,Clear,290,2013-01-04 03:55:00
9:15 PM,-9.4,-14.8,77,30.29,10.0,WNW,5.8,-,N/A,,Clear,300,2013-01-04 04:15:00
9:35 PM,-11.2,-14.8,84,30.29,10.0,NW,3.5,-,N/A,,Clear,310,2013-01-04 04:35:00
9:55 PM,-13.0,-16.6,84,30.28,10.0,West,4.6,-,N/A,,Clear,260,2013-01-04 04:55:00
10:15 PM,-14.8,-18.4,84,30.29,10.0,WNW,5.8,-,N/A,,Clear,290,2013-01-04 05:15:00
10:35 PM,-14.8,-18.4,84,30.29,10.0,WNW,4.6,-,N/A,,Clear,300,2013-01-04 05:35:00
10:55 PM,-13.0,-16.6,84,30.29,10.0,West,5.8,-,N/A,,Clear,280,2013-01-04 05:55:00
11:15 PM,-11.2,-14.8,84,30.29,10.0,NW,6.9,-,N/A,,Clear,310,2013-01-04 06:15:00
11:35 PM,-14.8,-20.2,77,30.29,10.0,West,3.5,-,N/A,,Clear,280,2013-01-04 06:35:00
11:55 PM,-14.8,-20.2,77,30.27,10.0,West,4.6,-,N/A,,Clear,280,2013-01-04 06:55:00